Location: Marcé
(47.5801°N, 0.3280°W)
Time: 14:46:47
(UTC+01:00)

Explorer 11/Cluster Stage 4 - Pass Details

Date: 30 November 2021
Orbit: 467 x 1255 km, 28.8° (Epoch: 23 January)

Event Time Altitude Azimuth Distance (km) Brightness Sun altitude
Exits shadow 06:54:11 - 237° (WSW) 3,797 9.7 -15.1°
Reaches altitude 10° 06:56:50 10° 224° (SW) 3,188 9.4 -14.7°
Maximum altitude 07:02:07 19° 184° (S) 2,598 9.4 -13.9°
Drops below altitude 10° 07:07:25 10° 143° (SE) 3,193 10.6 -13.0°
Sets 07:11:13 0° 127° (SE) 4,096 11.8 -12.4°
